Location: Mentone
(34.5413°N, 85.5351°W)
Time: 20:47:20
(UTC-05:00)

Vanguard 2 Rocket - Visible Passes

Search period start: 27 March 2015 00:00
Search period end: 06 April 2015 00:00
Orbit: 555 x 3333 km, 32.9° (Epoch: 26 March)

Date Brightness Start Highest point End Pass type
(mag) Time Alt. Az. Time Alt. Az. Time Alt. Az.
27 Mar 9.3 02:56:00 20° ESE 02:56:00 20° ESE 02:58:08 10° E visible
27 Mar 7.3 05:01:52 29° SW 05:05:48 60° SSE 05:10:55 10° E visible
28 Mar 7.8 04:06:20 51° S 04:07:02 52° SSE 04:12:59 10° E visible
29 Mar 8.6 03:10:46 35° ESE 03:10:46 35° ESE 03:14:54 10° E visible
29 Mar 7.1 05:16:37 22° WSW 05:22:05 73° S 05:27:15 10° E visible
30 Mar 9.6 02:15:09 16° E 02:15:09 16° E 02:16:34 10° E visible
30 Mar 7.5 04:21:00 49° SW 04:23:19 67° S 04:29:20 10° E visible
31 Mar 8.0 03:25:21 57° SE 03:25:21 57° SE 03:31:21 10° E visible
31 Mar 7.1 05:31:13 16° W 05:38:22 79° S 05:43:31 10° E visible
01 Apr 9.1 02:29:41 30° ESE 02:29:41 30° ESE 02:33:10 10° E visible
01 Apr 7.4 04:35:31 38° WSW 04:39:36 78° S 04:45:39 10° E visible
02 Apr 9.9 01:33:57 13° E 01:33:57 13° E 01:34:43 10° E visible
02 Apr 7.8 03:39:47 70° SSW 03:40:32 73° S 03:47:41 10° E visible
02 Apr 7.1 05:45:46 10° W 05:54:37 75° S 05:59:46 10° ESE visible
03 Apr 8.5 02:44:02 49° ESE 02:44:02 49° ESE 02:49:34 10° E visible
03 Apr 7.4 04:49:53 27° W 04:55:52 81° S 05:01:54 10° E visible
04 Apr 9.5 01:48:15 25° E 01:48:15 25° E 01:51:13 10° E visible
04 Apr 7.8 03:54:05 55° WSW 03:56:48 81° S 04:03:57 10° E visible
04 Apr 7.2 06:02:04 10° W 06:10:47 63° SSW 06:15:54 10° ESE visible
04 Apr 10.7 22:10:36 10° S 22:12:11 12° S 22:12:11 12° S visible
05 Apr 10.2 00:52:25 11° E 00:52:25 11° E 00:52:34 10° E visible
05 Apr 8.2 02:58:15 73° SE 02:58:15 73° SE 03:05:50 10° E visible
05 Apr 7.5 05:04:05 18° W 05:12:07 76° S 05:18:07 10° ESE visible
05 Apr 10.6 21:13:14 10° S 21:17:34 14° SSE 21:17:34 14° SSE visible
05 Apr 10.7 23:23:16 10° SW 23:56:33 - E 23:23:31 10° SSW visible
